Weather in Grakhovo

Russia / Udmurt Republic     56°02′48″N   51°57′57″E
temp.,
°C
wind,
m/s
gust,
m/s
humid.,
%
clouds,
%
prec.,
mm/h
press.,
hPa
HPBL,
m
23 april, fri
fri2301:00+3s499329 0.0 1026228
04:00+3sse4995100 0.0 1027279
07:00+3s4795100 0.0 1027287
10:00+6sse4582100 0.0 1028371
13:00+9se457092 0.0 1027600
16:00+12ese445810 0.0 10251068
19:00+10e3771100 0.0 1023158
22:00+7e4982100 0.0 1022156
24 april, sat
sat2401:00+7e4787100 0.0 1020189
04:00+5ese4896100 0.0 1019201
07:00+6e4896100 0.1 1018359
10:00+6e5996100 1.5 1016504
13:00+7e4793100 0.3 1014595
16:00+6ese3793100 0.9 1013451
19:00+6ese3696100 0.3 1012331
22:00+6se4797100 0.4 1011330
25 april, sun
sun2501:00+5se479767 0.1 1009240
04:00+6se51095100 0.3 1007336
07:00+7ssw71291100 1.4 1005969
10:00+5wsw7118192 1.7 10071140
13:00+9sw91252100 0.5 10082184
16:00+9sw8105098 0.7 10082099
19:00+5w61176100 0.5 1010973
22:00+4sw5138246 0.5 1012472
26 april, mon
mon2601:00+3sw612800 0.0 1014404
04:00+2sw512860 0.0 1015305
07:00+3sw512800 0.0 1016458
10:00+8ssw914515 0.0 10151623
13:00+9wsw101655100 0.1 10142036
16:00+9wsw9145892 0.3 10141715
19:00+8sw6116156 0.1 1014718
22:00+4sw337527 0.1 101436
27 april, tue
tue2701:00+3sw227839 0.0 101314
04:00+3sw1183100 0.0 101210
07:00+5se117479 0.0 101165
10:00+9s22564 0.0 1010966
13:00+12wsw234568 0.0 10081774
16:00+12sw234052 0.0 10071940
19:00+10sse236493 0.2 1007308
22:00+7se3677100 0.6 1006122